Year,Month,Day,Hour,Minute,Value (Times are PST for windgust in km/hr)
2012,01,25,00,00,45.10
2012,01,25,00,01,56.30
2012,01,25,00,02,24.20
2012,01,25,00,03,33.80
2012,01,25,00,04,51.50
2012,01,25,00,05,38.60
2012,01,25,00,06,54.70
2012,01,25,00,07,51.50
2012,01,25,00,08,43.50
2012,01,25,00,09,30.60
2012,01,25,00,10,45.10
2012,01,25,00,11,38.60
2012,01,25,00,12,33.80
2012,01,25,00,13,29.00
2012,01,25,00,14,40.20
2012,01,25,00,15,66.00
2012,01,25,00,16,38.60
2012,01,25,00,17,37.00
2012,01,25,00,18,48.30
2012,01,25,00,19,37.00
2012,01,25,00,20,53.10
2012,01,25,00,21,49.90
2012,01,25,00,22,33.80
2012,01,25,00,23,29.00
2012,01,25,00,24,43.50
2012,01,25,00,25,59.50
2012,01,25,00,26,45.10
2012,01,25,00,27,75.60
2012,01,25,00,28,40.20
2012,01,25,00,29,61.20
2012,01,25,00,30,66.00
2012,01,25,00,31,74.00
2012,01,25,02,12,48.30
2012,01,25,02,13,38.60
2012,01,25,02,14,37.00
2012,01,25,02,15,56.30
2012,01,25,02,16,35.40
2012,01,25,02,17,25.70
2012,01,25,02,18,24.20
2012,01,25,02,19,33.80
2012,01,25,02,20,20.90
2012,01,25,02,21,22.50
2012,01,25,02,22,20.90
2012,01,25,02,23,33.80
2012,01,25,02,24,41.80
2012,01,25,02,25,29.00
2012,01,25,02,26,38.60
2012,01,25,02,27,20.90
2012,01,25,02,28,19.30
2012,01,25,02,29,25.70
2012,01,25,02,30,30.60
2012,01,25,02,31,33.80
2012,01,25,02,32,20.90
2012,01,25,02,33,20.90
2012,01,25,02,34,25.70
2012,01,25,02,35,25.70
2012,01,25,02,36,35.40
2012,01,25,02,37,41.80
2012,01,25,02,38,17.70
2012,01,25,02,39,25.70
2012,01,25,02,40,38.60
2012,01,25,02,41,32.20
2012,01,25,02,42,19.30
2012,01,25,02,43,24.20
2012,01,25,02,44,24.20
2012,01,25,02,45,20.90
2012,01,25,02,46,8.10
2012,01,25,02,47,12.90
2012,01,25,02,48,12.90
2012,01,25,02,49,8.10
2012,01,25,02,50,17.70
2012,01,25,02,51,9.60
2012,01,25,02,52,24.20
2012,01,25,02,53,38.60
2012,01,25,02,54,20.90
2012,01,25,02,55,32.20
2012,01,25,02,56,19.30
2012,01,25,02,57,27.40
2012,01,25,02,58,25.70
2012,01,25,02,59,20.90
2012,01,25,03,00,12.90
2012,01,25,03,01,17.70
2012,01,25,03,02,22.50
2012,01,25,03,03,27.40
2012,01,25,03,04,17.70
2012,01,25,03,05,8.10
2012,01,25,03,06,12.90
2012,01,25,03,07,8.10
2012,01,25,03,08,6.40
2012,01,25,03,09,3.20
2012,01,25,03,10,4.80
2012,01,25,03,11,1.60
2012,01,25,03,12,1.60
2012,01,25,03,15,1.60
2012,01,25,03,17,1.60
2012,01,25,03,29,6.40
2012,01,25,03,30,1.60
2012,01,25,03,34,3.20
2012,01,25,03,35,6.40
2012,01,25,03,36,4.80
2012,01,25,03,37,4.80
2012,01,25,03,38,4.80
2012,01,25,03,39,1.60
2012,01,25,03,41,1.60
2012,01,25,03,42,4.80
2012,01,25,03,43,1.60
2012,01,25,03,45,3.20
2012,01,25,03,46,3.20
2012,01,25,03,47,8.10
2012,01,25,03,48,6.40
2012,01,25,03,49,4.80
2012,01,25,03,50,8.10
2012,01,25,03,51,8.10
2012,01,25,03,52,1.60
2012,01,25,03,53,3.20
2012,01,25,03,54,3.20
2012,01,25,03,55,3.20
2012,01,25,03,56,6.40
2012,01,25,03,57,4.80
2012,01,25,03,58,4.80
2012,01,25,03,59,6.40
2012,01,25,04,00,1.60
2012,01,25,04,01,1.60
2012,01,25,04,02,3.20
2012,01,25,04,10,1.60
2012,01,25,04,15,1.60
2012,01,25,04,16,1.60
2012,01,25,04,17,9.60
2012,01,25,04,18,8.10
2012,01,25,04,25,1.60
2012,01,25,04,26,1.60
2012,01,25,04,27,3.20
2012,01,25,04,28,1.60
2012,01,25,04,31,1.60
2012,01,25,04,32,1.60
2012,01,25,04,34,1.60
2012,01,25,04,38,1.60
2012,01,25,04,42,3.20
2012,01,25,04,43,3.20
2012,01,25,04,45,1.60
2012,01,25,04,46,3.20
2012,01,25,04,47,1.60
2012,01,25,04,48,1.60
2012,01,25,04,49,1.60
2012,01,25,04,59,3.20
2012,01,25,05,00,1.60
2012,01,25,05,05,1.60
2012,01,25,05,07,3.20
2012,01,25,05,08,3.20
2012,01,25,05,10,1.60
2012,01,25,05,11,1.60
2012,01,25,05,14,3.20
2012,01,25,05,15,1.60
2012,01,25,05,22,8.10
2012,01,25,05,23,11.30
2012,01,25,05,24,6.40
2012,01,25,05,25,4.80
2012,01,25,05,26,3.20
2012,01,25,05,27,1.60
2012,01,25,05,28,1.60
2012,01,25,05,30,1.60
2012,01,25,05,31,3.20
2012,01,25,05,32,3.20
2012,01,25,05,35,1.60
2012,01,25,05,39,4.80
2012,01,25,05,40,8.10
2012,01,25,05,42,1.60
2012,01,25,05,44,3.20
2012,01,25,05,45,4.80
2012,01,25,05,49,3.20
2012,01,25,05,50,6.40
2012,01,25,05,51,3.20
2012,01,25,05,54,3.20
2012,01,25,05,55,1.60
2012,01,25,05,56,3.20
2012,01,25,05,57,3.20
2012,01,25,05,58,6.40
2012,01,25,05,59,4.80
2012,01,25,06,00,4.80
2012,01,25,06,01,3.20
2012,01,25,06,02,4.80
2012,01,25,06,03,3.20
2012,01,25,06,05,8.10
2012,01,25,06,06,1.60
2012,01,25,06,07,1.60
2012,01,25,06,08,3.20
2012,01,25,06,09,1.60
2012,01,25,06,11,3.20
2012,01,25,06,12,3.20
2012,01,25,06,13,3.20
2012,01,25,06,14,4.80
2012,01,25,06,15,1.60
2012,01,25,06,16,1.60
2012,01,25,06,17,3.20
2012,01,25,06,18,3.20
2012,01,25,06,19,1.60
2012,01,25,06,24,3.20
2012,01,25,06,25,3.20
2012,01,25,06,26,1.60
2012,01,25,06,28,1.60
2012,01,25,06,29,1.60
2012,01,25,06,30,4.80
2012,01,25,06,31,6.40
2012,01,25,06,32,3.20
2012,01,25,06,33,1.60
2012,01,25,06,35,4.80
2012,01,25,06,36,3.20
2012,01,25,06,37,4.80
2012,01,25,06,38,3.20
2012,01,25,06,39,4.80
2012,01,25,06,40,1.60
2012,01,25,06,41,3.20
2012,01,25,06,47,1.60
2012,01,25,06,56,1.60
2012,01,25,06,57,1.60
2012,01,25,06,58,1.60
2012,01,25,06,59,1.60
2012,01,25,07,00,1.60
2012,01,25,07,04,9.60
2012,01,25,07,05,6.40
2012,01,25,07,06,4.80
2012,01,25,07,08,3.20
2012,01,25,07,09,6.40
2012,01,25,07,10,6.40
2012,01,25,07,11,6.40
2012,01,25,07,12,3.20
2012,01,25,07,13,6.40
2012,01,25,07,14,1.60
2012,01,25,07,15,6.40
2012,01,25,07,16,6.40
2012,01,25,07,17,3.20
2012,01,25,07,18,8.10
2012,01,25,07,19,6.40
2012,01,25,07,20,11.30
2012,01,25,07,21,9.60
2012,01,25,07,22,8.10
2012,01,25,07,23,8.10
2012,01,25,07,24,6.40
2012,01,25,07,25,8.10
2012,01,25,07,26,8.10
2012,01,25,07,27,4.80
2012,01,25,07,28,3.20
2012,01,25,07,29,1.60
2012,01,25,07,30,1.60
2012,01,25,07,31,3.20
2012,01,25,07,33,4.80
2012,01,25,07,34,6.40
2012,01,25,07,35,3.20
2012,01,25,07,38,3.20
2012,01,25,08,03,1.60
2012,01,25,08,51,6.40
2012,01,25,08,52,3.20
2012,01,25,08,53,1.60
2012,01,25,08,55,1.60
2012,01,25,08,56,3.20
2012,01,25,08,59,3.20
2012,01,25,09,00,3.20
2012,01,25,09,01,3.20
2012,01,25,09,02,1.60
2012,01,25,09,03,4.80
2012,01,25,09,04,1.60
2012,01,25,09,05,1.60
2012,01,25,09,06,4.80
2012,01,25,09,07,4.80
2012,01,25,09,08,3.20
2012,01,25,09,09,1.60
2012,01,25,09,10,1.60
2012,01,25,09,11,3.20
2012,01,25,09,12,3.20
2012,01,25,09,13,3.20
2012,01,25,09,14,1.60
2012,01,25,09,15,3.20
2012,01,25,09,16,3.20
2012,01,25,09,17,1.60
2012,01,25,09,18,4.80
2012,01,25,09,19,12.90
2012,01,25,09,20,11.30
2012,01,25,09,21,19.30
2012,01,25,09,22,22.50
2012,01,25,09,23,20.90
2012,01,25,09,24,17.70
2012,01,25,09,25,14.50
2012,01,25,09,26,11.30
2012,01,25,09,27,9.60
2012,01,25,09,28,11.30
2012,01,25,09,29,9.60
2012,01,25,09,30,4.80
2012,01,25,09,31,8.10
2012,01,25,09,32,3.20
2012,01,25,09,36,3.20
2012,01,25,09,37,3.20
2012,01,25,09,38,8.10
2012,01,25,09,39,8.10
2012,01,25,09,40,9.60
2012,01,25,09,41,6.40
2012,01,25,09,42,9.60
2012,01,25,09,43,3.20
2012,01,25,09,44,1.60
2012,01,25,09,45,3.20
2012,01,25,09,46,3.20
2012,01,25,09,48,1.60
2012,01,25,09,54,1.60
2012,01,25,09,55,1.60
2012,01,25,09,56,3.20
2012,01,25,10,00,1.60
2012,01,25,10,01,6.40
2012,01,25,10,02,3.20
2012,01,25,10,03,1.60
2012,01,25,10,04,1.60
2012,01,25,10,05,1.60
2012,01,25,10,12,1.60
2012,01,25,10,14,3.20
2012,01,25,10,15,1.60
2012,01,25,10,23,1.60
2012,01,25,10,24,3.20
2012,01,25,10,25,6.40
2012,01,25,10,26,3.20
2012,01,25,10,27,3.20
2012,01,25,10,28,3.20
2012,01,25,10,30,1.60
2012,01,25,10,31,4.80
2012,01,25,10,32,1.60
2012,01,25,10,35,1.60
2012,01,25,10,36,3.20
2012,01,25,10,38,3.20
2012,01,25,10,39,4.80
2012,01,25,10,40,9.60
2012,01,25,10,41,9.60
2012,01,25,10,42,11.30
2012,01,25,10,43,6.40
2012,01,25,10,44,1.60
2012,01,25,10,45,3.20
2012,01,25,10,46,4.80
2012,01,25,10,47,3.20
2012,01,25,10,48,19.30
2012,01,25,10,49,8.10
2012,01,25,10,50,8.10
2012,01,25,10,51,16.10
2012,01,25,10,52,8.10
2012,01,25,10,53,11.30
2012,01,25,10,54,14.50
2012,01,25,10,55,16.10
2012,01,25,10,56,16.10
2012,01,25,10,57,12.90
2012,01,25,10,58,8.10
2012,01,25,10,59,9.60
2012,01,25,11,00,16.10
2012,01,25,11,01,22.50
2012,01,25,11,02,27.40
2012,01,25,11,03,17.70
2012,01,25,11,04,27.40
2012,01,25,11,05,24.20
2012,01,25,11,06,25.70
2012,01,25,11,07,25.70
2012,01,25,11,08,17.70
2012,01,25,11,09,24.20
2012,01,25,11,10,22.50
2012,01,25,11,11,30.60
2012,01,25,11,12,32.20
2012,01,25,11,13,25.70
2012,01,25,11,14,25.70
2012,01,25,11,15,17.70
2012,01,25,11,16,20.90
2012,01,25,11,17,12.90
2012,01,25,11,18,14.50
2012,01,25,11,19,16.10
2012,01,25,11,20,11.30
2012,01,25,11,21,22.50
2012,01,25,11,22,19.30
2012,01,25,11,23,20.90
2012,01,25,11,24,11.30
2012,01,25,11,25,11.30
2012,01,25,11,26,9.60
2012,01,25,11,27,8.10
2012,01,25,11,28,17.70
2012,01,25,11,29,9.60
2012,01,25,11,30,9.60
2012,01,25,11,31,14.50
2012,01,25,11,32,9.60
2012,01,25,11,33,11.30
2012,01,25,11,34,8.10
2012,01,25,11,35,8.10
2012,01,25,11,36,11.30
2012,01,25,11,37,9.60
2012,01,25,11,38,8.10
2012,01,25,11,39,8.10
2012,01,25,11,40,11.30
2012,01,25,11,41,11.30
2012,01,25,11,42,8.10
2012,01,25,11,43,6.40
2012,01,25,11,44,17.70
2012,01,25,11,45,16.10
2012,01,25,11,46,8.10
2012,01,25,11,47,11.30
2012,01,25,11,48,4.80
2012,01,25,11,49,11.30
2012,01,25,11,50,11.30
2012,01,25,11,51,11.30
2012,01,25,11,52,11.30
2012,01,25,11,53,11.30
2012,01,25,11,54,9.60
2012,01,25,11,55,9.60
2012,01,25,11,56,9.60
2012,01,25,11,57,14.50
2012,01,25,11,58,11.30
2012,01,25,11,59,6.40
2012,01,25,12,00,4.80
2012,01,25,12,01,3.20
2012,01,25,12,02,3.20
2012,01,25,12,03,1.60
2012,01,25,12,05,4.80
2012,01,25,12,06,9.60
2012,01,25,12,07,11.30
2012,01,25,12,08,8.10
2012,01,25,12,09,11.30
2012,01,25,12,10,8.10
2012,01,25,12,11,6.40
2012,01,25,12,12,8.10
2012,01,25,12,13,9.60
2012,01,25,12,14,4.80
2012,01,25,12,15,1.60
2012,01,25,12,16,4.80
2012,01,25,12,17,1.60
2012,01,25,12,19,11.30
2012,01,25,12,20,12.90
2012,01,25,12,21,3.20
2012,01,25,12,22,1.60
2012,01,25,12,23,1.60
2012,01,25,12,24,1.60
2012,01,25,12,26,1.60
2012,01,25,12,27,1.60
2012,01,25,12,30,1.60
2012,01,25,12,33,8.10
2012,01,25,12,34,6.40
2012,01,25,12,35,6.40
2012,01,25,12,36,6.40
2012,01,25,12,37,1.60
2012,01,25,12,40,6.40
2012,01,25,12,41,4.80
2012,01,25,12,42,8.10
2012,01,25,12,43,6.40
2012,01,25,12,45,1.60
2012,01,25,12,46,8.10
2012,01,25,12,47,8.10
2012,01,25,12,48,8.10
2012,01,25,12,49,8.10
2012,01,25,12,50,4.80
2012,01,25,12,51,4.80
2012,01,25,12,52,3.20
2012,01,25,12,53,3.20
2012,01,25,12,54,4.80
2012,01,25,12,55,1.60
2012,01,25,13,01,3.20
2012,01,25,13,02,8.10
2012,01,25,13,03,9.60
2012,01,25,13,04,9.60
2012,01,25,13,05,6.40
2012,01,25,13,06,4.80
2012,01,25,13,07,4.80
2012,01,25,13,08,4.80
2012,01,25,13,18,1.60
2012,01,25,13,40,1.60
2012,01,25,13,42,1.60
2012,01,25,13,43,1.60
2012,01,25,13,49,1.60
2012,01,25,13,50,1.60
2012,01,25,13,52,3.20
2012,01,25,13,53,1.60
2012,01,25,13,56,1.60
2012,01,25,13,58,1.60
2012,01,25,14,00,4.80
2012,01,25,14,01,1.60
2012,01,25,14,02,3.20
2012,01,25,14,03,3.20
2012,01,25,14,04,1.60
2012,01,25,14,14,3.20
2012,01,25,14,15,4.80
2012,01,25,14,16,8.10
2012,01,25,14,17,16.10
2012,01,25,14,18,16.10
2012,01,25,14,19,3.20
2012,01,25,14,20,1.60
2012,01,25,14,22,8.10
2012,01,25,14,23,6.40
2012,01,25,14,25,1.60
2012,01,25,14,28,8.10
2012,01,25,14,29,9.60
2012,01,25,14,30,4.80
2012,01,25,14,31,1.60
2012,01,25,14,34,6.40
2012,01,25,14,35,11.30
2012,01,25,14,36,16.10
2012,01,25,14,37,12.90
2012,01,25,14,38,11.30
2012,01,25,14,39,6.40
2012,01,25,14,40,4.80
2012,01,25,14,41,3.20
2012,01,25,14,42,3.20
2012,01,25,14,43,4.80
2012,01,25,14,44,11.30
2012,01,25,14,45,8.10
2012,01,25,14,46,8.10
2012,01,25,14,47,9.60
2012,01,25,14,48,14.50
2012,01,25,14,49,19.30
2012,01,25,14,50,9.60
2012,01,25,14,51,6.40
2012,01,25,14,52,12.90
2012,01,25,14,53,19.30
2012,01,25,14,54,17.70
2012,01,25,14,55,6.40
2012,01,25,14,56,12.90
2012,01,25,14,57,9.60
2012,01,25,14,58,9.60
2012,01,25,14,59,24.20
2012,01,25,15,00,30.60
2012,01,25,15,01,25.70
2012,01,25,15,02,33.80
2012,01,25,15,03,29.00
2012,01,25,15,04,24.20
2012,01,25,15,05,20.90
2012,01,25,15,06,17.70
2012,01,25,15,07,22.50
2012,01,25,15,08,14.50
2012,01,25,15,09,35.40
2012,01,25,15,10,25.70
2012,01,25,15,11,22.50
2012,01,25,15,12,20.90
2012,01,25,15,13,29.00
2012,01,25,15,14,12.90
2012,01,25,15,15,24.20
2012,01,25,15,16,19.30
2012,01,25,15,17,6.40
2012,01,25,15,18,8.10
2012,01,25,15,19,12.90
2012,01,25,15,20,9.60
2012,01,25,15,21,11.30
2012,01,25,15,22,8.10
2012,01,25,15,23,6.40
2012,01,25,15,24,4.80
2012,01,25,15,25,6.40
2012,01,25,15,26,11.30
2012,01,25,15,27,8.10
2012,01,25,15,28,11.30
2012,01,25,15,29,17.70
2012,01,25,15,30,20.90
2012,01,25,15,31,9.60
2012,01,25,15,32,4.80
2012,01,25,15,33,4.80
2012,01,25,15,34,4.80
2012,01,25,15,35,3.20
2012,01,25,15,36,3.20
2012,01,25,15,37,11.30
2012,01,25,15,38,8.10
2012,01,25,15,39,3.20
2012,01,25,15,40,1.60
2012,01,25,15,41,3.20
2012,01,25,15,42,1.60
2012,01,25,15,43,3.20
2012,01,25,15,44,1.60
2012,01,25,15,51,1.60
2012,01,25,15,52,1.60
2012,01,25,15,53,1.60
2012,01,25,15,54,6.40
2012,01,25,15,55,8.10
2012,01,25,15,56,9.60
2012,01,25,15,57,9.60
2012,01,25,15,58,3.20
2012,01,25,15,59,1.60
2012,01,25,16,00,6.40
2012,01,25,16,01,17.70
2012,01,25,16,02,17.70
2012,01,25,16,03,8.10
2012,01,25,16,04,3.20
2012,01,25,16,05,9.60
2012,01,25,16,06,11.30
2012,01,25,16,07,6.40
2012,01,25,16,08,3.20
2012,01,25,16,11,1.60
2012,01,25,16,12,1.60
2012,01,25,16,17,1.60
2012,01,25,16,19,1.60
2012,01,25,16,20,1.60
2012,01,25,16,21,1.60
2012,01,25,16,22,3.20
2012,01,25,16,23,3.20
2012,01,25,16,24,3.20
2012,01,25,16,25,1.60
2012,01,25,16,26,3.20
2012,01,25,16,27,3.20
2012,01,25,16,28,1.60
2012,01,25,16,34,3.20
2012,01,25,16,35,1.60
2012,01,25,16,36,1.60
2012,01,25,16,39,1.60
2012,01,25,16,40,3.20
2012,01,25,16,54,4.80
2012,01,25,16,55,8.10
2012,01,25,16,56,3.20
2012,01,25,16,57,1.60
2012,01,25,16,58,1.60
2012,01,25,16,59,1.60
2012,01,25,17,00,4.80
2012,01,25,17,01,1.60
2012,01,25,17,02,1.60
2012,01,25,17,03,1.60
2012,01,25,17,04,1.60
2012,01,25,17,06,4.80
2012,01,25,17,07,3.20
2012,01,25,17,08,3.20
2012,01,25,17,09,3.20
2012,01,25,17,10,3.20
2012,01,25,17,15,1.60
2012,01,25,17,17,6.40
2012,01,25,17,18,8.10
2012,01,25,17,19,6.40
2012,01,25,17,20,3.20
2012,01,25,17,21,3.20
2012,01,25,17,22,4.80
2012,01,25,17,24,3.20
2012,01,25,17,27,1.60
2012,01,25,17,28,1.60
2012,01,25,17,29,3.20
2012,01,25,17,30,4.80
2012,01,25,17,31,1.60
2012,01,25,17,35,3.20
2012,01,25,17,36,3.20
2012,01,25,17,37,1.60
2012,01,25,17,38,3.20
2012,01,25,17,40,1.60
2012,01,25,17,41,3.20
2012,01,25,17,42,1.60
2012,01,25,17,43,1.60
2012,01,25,17,44,3.20
2012,01,25,17,45,3.20
2012,01,25,17,46,6.40
2012,01,25,17,47,1.60
2012,01,25,17,48,3.20
2012,01,25,17,50,1.60
2012,01,25,17,58,3.20
2012,01,25,17,59,3.20
2012,01,25,18,00,3.20
2012,01,25,18,01,3.20
2012,01,25,18,02,4.80
2012,01,25,18,03,3.20
2012,01,25,18,04,6.40
2012,01,25,18,05,1.60
2012,01,25,18,06,3.20
2012,01,25,18,07,1.60
2012,01,25,18,09,4.80
2012,01,25,18,10,1.60
2012,01,25,18,11,1.60
2012,01,25,18,12,1.60
2012,01,25,18,14,3.20
2012,01,25,18,15,6.40
2012,01,25,18,23,1.60
2012,01,25,18,24,1.60
2012,01,25,18,32,1.60
2012,01,25,18,36,4.80
2012,01,25,18,37,4.80
2012,01,25,18,38,1.60
2012,01,25,18,39,1.60
2012,01,25,18,40,1.60
2012,01,25,18,41,3.20
2012,01,25,18,42,4.80
2012,01,25,18,43,3.20
2012,01,25,18,44,1.60
2012,01,25,18,45,3.20
2012,01,25,18,46,4.80
2012,01,25,18,47,3.20
2012,01,25,18,48,1.60
2012,01,25,18,49,3.20
2012,01,25,18,50,3.20
2012,01,25,18,52,3.20
2012,01,25,18,53,3.20
2012,01,25,18,54,6.40
2012,01,25,18,55,3.20
2012,01,25,18,56,3.20
2012,01,25,18,57,3.20
2012,01,25,18,58,4.80
2012,01,25,18,59,3.20
2012,01,25,19,00,3.20
2012,01,25,19,01,4.80
2012,01,25,19,02,3.20
2012,01,25,19,03,6.40
2012,01,25,19,04,3.20
2012,01,25,19,05,4.80
2012,01,25,19,06,8.10
2012,01,25,19,07,3.20
2012,01,25,19,08,3.20
2012,01,25,19,09,4.80
2012,01,25,19,10,6.40
2012,01,25,19,11,1.60
2012,01,25,19,12,3.20
2012,01,25,19,13,6.40
2012,01,25,19,14,6.40
2012,01,25,19,15,3.20
2012,01,25,19,16,1.60
2012,01,25,19,17,4.80
2012,01,25,19,18,3.20
2012,01,25,19,19,6.40
2012,01,25,19,20,8.10
2012,01,25,19,21,4.80
2012,01,25,19,22,4.80
2012,01,25,19,23,4.80
2012,01,25,19,24,3.20
2012,01,25,19,25,4.80
2012,01,25,19,26,3.20
2012,01,25,19,27,4.80
2012,01,25,19,28,4.80
2012,01,25,19,29,6.40
2012,01,25,19,30,6.40
2012,01,25,19,31,6.40
2012,01,25,19,32,1.60
2012,01,25,19,35,1.60
2012,01,25,19,36,3.20
2012,01,25,19,37,1.60
2012,01,25,19,40,3.20
2012,01,25,19,44,1.60
2012,01,25,19,45,1.60
2012,01,25,19,51,1.60
2012,01,25,20,08,3.20
2012,01,25,20,09,4.80
2012,01,25,20,10,1.60
2012,01,25,20,12,1.60
2012,01,25,20,28,3.20
2012,01,25,20,29,3.20
2012,01,25,20,31,3.20
2012,01,25,20,32,1.60
2012,01,25,20,33,1.60
2012,01,25,20,42,3.20
2012,01,25,20,43,1.60
2012,01,25,20,44,1.60
2012,01,25,20,45,3.20
2012,01,25,20,46,3.20
2012,01,25,20,47,3.20
2012,01,25,20,48,3.20
2012,01,25,20,49,1.60
2012,01,25,20,52,3.20
2012,01,25,20,53,1.60
2012,01,25,20,56,3.20
2012,01,25,20,57,4.80
2012,01,25,20,58,3.20
2012,01,25,20,59,8.10
2012,01,25,21,00,3.20
2012,01,25,21,15,1.60
2012,01,25,21,16,1.60
2012,01,25,21,17,3.20
2012,01,25,21,18,1.60
2012,01,25,21,19,1.60
2012,01,25,21,22,1.60
2012,01,25,21,23,1.60
2012,01,25,21,48,1.60
2012,01,25,21,49,1.60
2012,01,25,21,50,3.20
2012,01,25,21,51,3.20
2012,01,25,21,52,1.60
2012,01,25,21,55,3.20
2012,01,25,21,56,3.20
2012,01,25,21,57,1.60
2012,01,25,21,59,3.20
2012,01,25,22,00,1.60
2012,01,25,22,01,1.60
2012,01,25,22,02,1.60
2012,01,25,22,03,3.20
2012,01,25,22,04,1.60
2012,01,25,22,05,3.20
2012,01,25,22,06,3.20
2012,01,25,22,07,1.60
2012,01,25,22,08,8.10
2012,01,25,22,09,1.60
2012,01,25,22,10,8.10
2012,01,25,22,11,3.20
2012,01,25,22,12,6.40
2012,01,25,22,13,3.20
2012,01,25,22,14,1.60
2012,01,25,22,16,1.60
2012,01,25,22,17,1.60
2012,01,25,22,18,3.20
2012,01,25,22,19,3.20
2012,01,25,22,20,3.20
2012,01,25,22,21,3.20
2012,01,25,22,22,1.60
2012,01,25,22,23,3.20
2012,01,25,22,24,1.60
2012,01,25,22,25,3.20
2012,01,25,22,26,6.40
2012,01,25,22,27,6.40
2012,01,25,22,28,3.20
2012,01,25,22,30,3.20
2012,01,25,22,31,3.20
2012,01,25,22,32,3.20
2012,01,25,22,38,6.40
2012,01,25,22,39,6.40
2012,01,25,22,40,6.40
2012,01,25,22,41,6.40
2012,01,25,22,42,3.20
2012,01,25,22,43,8.10
2012,01,25,22,44,8.10
2012,01,25,22,45,8.10
2012,01,25,22,46,4.80
2012,01,25,22,47,6.40
2012,01,25,22,48,3.20
2012,01,25,22,49,4.80
2012,01,25,22,50,4.80
2012,01,25,22,51,4.80
2012,01,25,22,52,4.80
2012,01,25,22,53,6.40
2012,01,25,22,54,4.80
2012,01,25,22,55,4.80
2012,01,25,22,56,4.80
2012,01,25,22,57,3.20
2012,01,25,22,58,4.80
2012,01,25,22,59,4.80
2012,01,25,23,00,4.80
2012,01,25,23,01,3.20
2012,01,25,23,02,3.20
2012,01,25,23,03,1.60
2012,01,25,23,04,4.80
2012,01,25,23,05,4.80
2012,01,25,23,06,4.80
2012,01,25,23,07,3.20
2012,01,25,23,08,6.40
2012,01,25,23,09,6.40
2012,01,25,23,10,8.10
2012,01,25,23,11,6.40
2012,01,25,23,12,4.80
2012,01,25,23,13,8.10
2012,01,25,23,14,8.10
2012,01,25,23,15,4.80
2012,01,25,23,16,4.80
2012,01,25,23,17,3.20
2012,01,25,23,18,4.80
2012,01,25,23,19,3.20
2012,01,25,23,20,1.60
2012,01,25,23,21,3.20
2012,01,25,23,22,3.20
2012,01,25,23,23,1.60
2012,01,25,23,24,1.60
2012,01,25,23,25,3.20
2012,01,25,23,26,3.20
2012,01,25,23,27,3.20
2012,01,25,23,28,3.20
2012,01,25,23,29,3.20
2012,01,25,23,30,1.60
2012,01,25,23,31,3.20
2012,01,25,23,32,4.80
2012,01,25,23,33,4.80
2012,01,25,23,34,4.80
2012,01,25,23,35,4.80
2012,01,25,23,36,4.80
2012,01,25,23,37,4.80
2012,01,25,23,38,4.80
2012,01,25,23,39,6.40
2012,01,25,23,40,6.40
2012,01,25,23,41,4.80
2012,01,25,23,42,3.20
2012,01,25,23,43,3.20
2012,01,25,23,44,4.80
2012,01,25,23,45,4.80
2012,01,25,23,46,6.40
2012,01,25,23,47,4.80
2012,01,25,23,48,3.20
2012,01,25,23,49,4.80
2012,01,25,23,50,4.80
2012,01,25,23,51,4.80
2012,01,25,23,52,4.80
2012,01,25,23,53,4.80
2012,01,25,23,54,4.80
2012,01,25,23,55,3.20
2012,01,25,23,56,4.80
2012,01,25,23,57,4.80
2012,01,25,23,58,4.80
2012,01,25,23,59,3.20
